Tracking 19709 objects as of 19-Jun-2019
HD Live streaming from Space Station
objects crossing your sky now

DODECAPOLE 2 DEB

Track DODECAPOLE 2 DEB now!
10-day predictions


NORAD ID: 41734
Int'l Code: 2016-051D
Perigee: 884.6 km
Apogee: 943.5 km
Inclination: 90.0 °
Period: 103.1 minutes
Semi major axis: 7285 km
RCS: Unknown
Launch date: August 15, 2016
Source: United States (US)
Launch site: Jiuquan Satellite Launch Center, China (JSC)

Note: This is SATELLITE DEBRIS
aabbcc
Your satellite tracking list
Your tracking list is empty




NASA's NSSDC Master Catalog

Two Line Element Set (TLE):
1 41734U 65065U   19169.76055166 +.00000625 +00000-0 +44424-3 0  9997
2 41734 090.0314 013.3262 0040434 296.8975 062.8072 13.96225035177697
Source of the keplerian elements: AFSPC